CW1492 Weather Reports


time (UTC)temp
F
wind
direction
speed
knots
gust
knots
rain 1hr
in
rain 24hr
in
rain mn
in
humidity
%
barometer
mb
20260504160329 65 195 6.1 13.9 0.00 0.00 0.00 24 1009.1
20260504160316 65 209 4.3 10.4 0.00 0.00 0.00 39 1007.7
20260504150411 63 212 6.1 17.4 0.00 0.00 0.00 26 1009.7
20260504150332 64 223 2.6 13.0 0.00 0.00 0.00 41 1008.0
20260504140342 60 199 4.3 12.2 0.00 0.00 0.00 30 1009.8
20260504140317 59 173 4.3 10.4 0.00 0.00 0.00 50 1008.1
20260504130418 54 105 1.7 9.6 0.00 0.00 0.00 40 1010.5
20260504130408 55 164 3.5 9.6 0.00 0.00 0.00 54 1008.9
20260504130336 54 105 1.7 9.6 0.00 0.00 0.00 40 1010.5
20260504110410 45 110 3.5 7.0 0.00 0.00 0.00 49 1011.0
20260504110334 47 156 2.6 5.2 0.00 0.00 0.00 68 1009.6
20260504100337 42 266 0.0 0.9 0.00 0.00 0.00 78 1009.3
20260504100327 44 95 1.7 2.6 0.00 0.00 0.00 51 1010.7
20260504081841 45 207 0.0 0.9 0.00 0.00 0.00 71 1009.4
20260504081832 46 97 2.6 7.0 0.00 0.00 0.00 47 1010.8
20260504080353 46 120 1.7 4.3 0.00 0.00 0.00 48 1010.7
20260504080345 46 156 5.2 7.0 0.00 0.00 0.00 69 1009.2
20260504070401 45 212 0.0 0.9 0.00 0.00 0.00 69 1009.4
20260504070359 46 158 0.9 5.2 0.00 0.00 0.00 46 1010.6
20260504050426 41 92 0.0 0.0 0.00 0.00 0.00 55 1011.2
20260504050328 42 294 0.0 1.7 0.00 0.00 0.00 71 1009.5
20260504044829 41 280 0.0 0.9 0.00 0.00 0.00 69 1009.5
20260504044826 41 92 0.0 0.0 0.00 0.00 0.00 53 1011.1
20260504043336 40 92 0.9 2.6 0.00 0.00 0.00 51 1011.2
20260504043329 41 280 0.0 1.7 0.00 0.00 0.00 72 1009.4
20260504041931 40 92 0.0 2.6 0.00 0.00 0.00 54 1011.2
20260504041907 39 166 0.9 2.6 0.00 0.00 0.00 70 1009.5
20260504040343 41 114 1.7 3.5 0.00 0.00 0.00 56 1010.8
20260504040327 38 306 0.0 0.9 0.00 0.00 0.00 77 1009.4
20260504034845 42 25 1.7 2.6 0.00 0.00 0.00 54 1010.9
20260504034813 36 306 0.9 1.7 0.00 0.00 0.00 78 1009.5
20260504033407 36 306 0.0 0.9 0.00 0.00 0.00 79 1009.4
20260504033336 44 78 2.6 3.5 0.00 0.00 0.00 41 1010.7
20260504031901 45 116 0.9 2.6 0.00 0.00 0.00 38 1010.8
20260504031831 36 306 0.0 0.0 0.00 0.00 0.00 82 1009.2
20260504030329 35 306 0.0 0.0 0.00 0.00 0.00 83 1009.2
20260504030326 44 116 0.0 1.7 0.00 0.00 0.00 38 1010.9
20260504024858 35 306 0.0 1.7 0.00 0.00 0.00 84 1009.2
20260504024848 44 116 0.9 1.7 0.00 0.00 0.00 39 1011.0
20260504023409 43 125 0.9 2.6 0.00 0.00 0.00 41 1011.0
20260504023315 36 306 0.0 0.9 0.00 0.00 0.00 85 1009.2
20260504021827 43 76 1.7 2.6 0.00 0.00 0.00 43 1011.0
20260504021819 36 306 0.0 0.9 0.00 0.00 0.00 85 1009.8
20260504020413 37 306 0.0 0.9 0.00 0.00 0.00 83 1009.2
20260504020332 42 70 1.7 2.6 0.00 0.00 0.00 45 1010.8
20260504014933 37 306 0.0 0.0 0.00 0.00 0.00 82 1009.1
20260504014835 43 95 0.9 4.3 0.00 0.00 0.00 44 1010.6
20260504013401 43 87 2.6 3.5 0.00 0.00 0.00 39 1010.4
20260504013335 37 306 0.0 0.0 0.00 0.00 0.00 79 1008.9
20260504011915 44 105 1.7 2.6 0.00 0.00 0.00 38 1010.4
20260504011833 44 105 1.7 2.6 0.00 0.00 0.00 38 1010.4
20260504011818 38 306 0.0 0.0 0.00 0.00 0.00 77 1008.8
20260504010341 38 306 0.0 0.0 0.00 0.00 0.00 71 1008.6
20260504010335 44 99 1.7 2.6 0.00 0.00 0.00 39 1010.1
20260504004843 39 306 0.0 0.0 0.00 0.00 0.00 73 1008.4
20260504004841 44 87 2.6 3.5 0.00 0.00 0.00 39 1009.9
20260504003356 40 306 0.0 0.0 0.00 0.00 0.00 70 1008.2
20260504003345 45 81 2.6 3.5 0.00 0.00 0.00 40 1009.7
20260504001850 46 61 1.7 3.5 0.00 0.00 0.00 37 1009.6
20260504001818 41 306 0.0 0.9 0.00 0.00 0.00 67 1008.0
20260504000358 49 58 1.7 2.6 0.00 0.00 0.00 33 1009.4
20260504000346 43 306 0.0 1.7 0.00 0.00 0.00 64 1007.9
20260503234830 51 289 0.0 1.7 0.00 0.00 0.00 28 1009.3
20260503234828 45 306 0.9 1.7 0.00 0.00 0.00 60 1007.8
20260503233348 51 263 0.9 3.5 0.00 0.00 0.00 27 1009.2
20260503233339 48 306 0.0 1.7 0.00 0.00 0.00 59 1007.7
20260503231921 51 308 2.6 6.1 0.00 0.00 0.00 28 1009.1
20260503231842 50 351 0.0 1.7 0.00 0.00 0.00 50 1007.6
20260503230456 51 353 0.9 9.6 0.00 0.00 0.00 29 1009.1
20260503230413 51 353 0.9 9.6 0.00 0.00 0.00 29 1009.1
20260503230343 50 341 0.9 5.2 0.00 0.00 0.00 45 1007.5
20260503224842 50 335 1.7 7.0 0.00 0.00 0.00 44 1007.6
20260503224828 52 328 5.2 10.4 0.00 0.00 0.00 26 1009.2
20260503223412 50 22 2.6 4.3 0.00 0.00 0.00 45 1007.5
20260503223400 51 280 3.5 14.8 0.00 0.00 0.00 26 1009.1
20260503221845 52 291 7.8 12.2 0.00 0.00 0.00 25 1009.1
20260503221810 50 311 3.5 7.0 0.00 0.00 0.00 44 1007.5
20260503220416 51 349 2.6 7.8 0.00 0.00 0.00 43 1007.4
20260503220403 51 306 3.5 8.7 0.00 0.00 0.00 30 1009.0
20260503214858 51 295 6.1 13.9 0.00 0.00 0.00 27 1009.1
20260503214838 50 275 1.7 3.5 0.00 0.00 0.00 46 1007.6
20260503213421 51 212 3.5 11.3 0.00 0.00 0.00 28 1008.9
20260503213349 50 5 1.7 5.2 0.00 0.00 0.00 44 1007.4
20260503211907 51 300 5.2 16.5 0.00 0.00 0.00 31 1008.9
20260503211821 51 317 3.5 7.8 0.00 0.00 0.00 43 1007.3
20260503210350 50 268 6.1 13.9 0.00 0.00 0.00 28 1008.7
20260503210329 51 30 2.6 8.7 0.00 0.00 0.00 44 1007.1
20260503204851 51 215 7.0 13.9 0.00 0.00 0.00 27 1008.7
20260503204828 51 308 1.7 8.7 0.00 0.00 0.00 44 1007.0
20260503203427 51 357 4.3 13.0 0.00 0.00 0.00 31 1008.5
20260503203401 50 318 2.6 8.7 0.00 0.00 0.00 44 1007.1
20260503201950 49 325 7.0 16.5 0.00 0.00 0.00 30 1008.8
20260503201847 49 325 7.0 16.5 0.00 0.00 0.00 30 1008.8
20260503201837 49 327 2.6 9.6 0.00 0.00 0.00 45 1007.2
20260503200436 51 232 7.0 13.9 0.00 0.00 0.00 28 1008.8
20260503200340 50 344 3.5 12.2 0.00 0.00 0.00 46 1007.2
20260503194850 50 302 1.7 7.8 0.00 0.00 0.00 46 1007.3
20260503194832 49 345 7.0 13.9 0.00 0.00 0.00 31 1009.0
20260503193357 50 25 2.6 8.7 0.00 0.00 0.00 46 1007.2
20260503193345 49 318 6.1 15.6 0.00 0.00 0.00 30 1009.0
20260503191845 49 258 10.4 19.1 0.00 0.00 0.00 29 1008.8
20260503191841 49 286 2.6 11.3 0.00 0.00 0.00 46 1007.2
20260503190347 49 305 4.3 8.7 0.00 0.00 0.00 46 1007.3
20260503190331 49 248 4.3 13.9 0.00 0.00 0.00 32 1008.9
20260503184846 49 325 8.7 18.2 0.00 0.00 0.00 30 1008.9
20260503184835 49 315 4.3 10.4 0.00 0.00 0.00 45 1007.2
20260503183443 50 321 6.1 17.4 0.00 0.00 0.00 30 1008.9
20260503183401 50 321 6.1 17.4 0.00 0.00 0.00 30 1008.9
20260503183316 50 330 3.5 13.9 0.00 0.00 0.00 46 1007.3
20260503181908 50 353 7.8 19.1 0.00 0.00 0.00 29 1008.9
20260503181820 50 329 4.3 13.0 0.00 0.00 0.00 45 1007.4
20260503180343 50 344 7.0 18.2 0.00 0.00 0.00 29 1008.9
20260503180324 50 311 5.2 10.4 0.00 0.00 0.00 45 1007.4
20260503174826 48 291 8.7 17.4 0.00 0.00 0.00 32 1008.9
20260503174824 49 360 2.6 13.0 0.00 0.00 0.00 47 1007.3
20260503173358 49 271 3.5 9.6 0.00 0.00 0.00 48 1007.1
20260503173333 49 357 11.3 20.9 0.00 0.00 0.00 32 1008.8
20260503171917 49 330 8.7 18.2 0.00 0.00 0.00 31 1008.8
20260503171815 49 306 3.5 9.6 0.00 0.00 0.00 49 1007.1
20260503170434 49 295 8.7 14.8 0.00 0.00 0.00 34 1008.7
20260503170323 49 21 3.5 9.6 0.00 0.00 0.00 50 1007.0